Location: Newark
(50.8086°N, 4.3114°E)
Time: 23:55:07
(UTC+00:00)

XW-2D - Pass Details

Date: 23 January 2020
Orbit: 507 x 528 km, 97.5° (Epoch: 25 February)

Event Time Altitude Azimuth Distance (km) Brightness Sun altitude
Rises 16:59:58 0° 177° (S) 2,647 ? -6.8°
Reaches altitude 10° 17:02:06 10° 183° (S) 1,761 ? -7.1°
Maximum altitude 17:05:49 51° 260° (W) 664 ? -7.6°
Drops below altitude 10° 17:09:32 10° 337° (NNW) 1,764 ? -8.2°
Sets 17:11:41 0° 343° (NNW) 2,654 ? -8.5°
